Time,TemperatureF,DewpointF,PressureIn,WindDirection,WindDirectionDegrees,WindSpeedMPH,WindSpeedGustMPH,Humidity,HourlyPrecipIn,Conditions,Clouds,dailyrainin,SolarRadiationWatts/m^2,SoftwareType,DateUTC
2013-10-13 00:02:00,49.3,47.0,30.00,South,186,0.0,1.0,92,0.00,,,0.00,0.0,WUHU216DAVISVP2,2013-10-12 23:02:00,
2013-10-13 00:07:00,49.3,47.1,30.00,South,186,0.0,1.0,92,0.00,,,0.00,0.0,WUHU216DAVISVP2,2013-10-12 23:07:00,
2013-10-13 00:12:00,49.2,47.0,30.00,South,186,0.0,1.0,92,0.00,,,0.00,0.0,WUHU216DAVISVP2,2013-10-12 23:12:00,
2013-10-13 00:17:00,49.2,46.9,30.00,South,186,0.0,1.0,92,0.00,,,0.00,0.0,WUHU216DAVISVP2,2013-10-12 23:17:00,
2013-10-13 00:22:00,49.2,46.9,30.00,South,186,0.0,1.0,92,0.00,,,0.00,0.0,WUHU216DAVISVP2,2013-10-12 23:22:00,
2013-10-13 00:27:00,49.2,47.0,30.00,South,186,0.0,1.0,92,0.00,,,0.00,0.0,WUHU216DAVISVP2,2013-10-12 23:27:00,
2013-10-13 00:32:00,49.2,47.0,29.99,South,186,0.0,1.0,92,0.00,,,0.00,0.0,WUHU216DAVISVP2,2013-10-12 23:32:00,
2013-10-13 00:37:00,49.1,46.8,29.99,South,186,0.0,1.0,92,0.00,,,0.00,0.0,WUHU216DAVISVP2,2013-10-12 23:37:00,
2013-10-13 00:42:00,49.1,46.8,29.99,South,186,0.0,1.0,92,0.00,,,0.00,0.0,WUHU216DAVISVP2,2013-10-12 23:42:00,
2013-10-13 00:47:00,49.1,46.8,29.99,South,186,0.0,1.0,92,0.00,,,0.00,0.0,WUHU216DAVISVP2,2013-10-12 23:47:00,
2013-10-13 00:52:00,49.0,46.8,29.99,South,174,0.0,1.0,92,0.00,,,0.00,0.0,WUHU216DAVISVP2,2013-10-12 23:52:00,
2013-10-13 00:57:00,49.0,46.5,29.99,SW,225,0.0,3.0,91,0.00,,,0.00,0.0,WUHU216DAVISVP2,2013-10-12 23:57:00,
2013-10-13 01:02:00,49.0,46.4,29.99,WSW,248,0.0,3.0,91,0.00,,,0.00,0.0,WUHU216DAVISVP2,2013-10-13 00:02:00,
2013-10-13 01:07:00,48.9,46.3,29.99,WSW,248,0.0,3.0,91,0.00,,,0.00,0.0,WUHU216DAVISVP2,2013-10-13 00:07:00,
2013-10-13 01:12:00,48.9,46.3,29.99,WSW,248,0.0,3.0,91,0.00,,,0.00,0.0,WUHU216DAVISVP2,2013-10-13 00:12:00,
2013-10-13 01:17:00,48.9,46.3,29.99,SW,219,0.0,3.0,91,0.00,,,0.00,0.0,WUHU216DAVISVP2,2013-10-13 00:17:00,
2013-10-13 01:22:00,48.9,46.4,29.99,SSW,211,0.0,2.0,91,0.00,,,0.00,0.0,WUHU216DAVISVP2,2013-10-13 00:22:00,
2013-10-13 01:27:00,48.9,46.4,29.99,WNW,297,0.0,2.0,91,0.00,,,0.00,0.0,WUHU216DAVISVP2,2013-10-13 00:27:00,
2013-10-13 01:32:00,49.0,46.4,29.98,WNW,297,0.0,2.0,91,0.00,,,0.00,0.0,WUHU216DAVISVP2,2013-10-13 00:32:00,
2013-10-13 01:37:00,49.0,46.2,29.98,West,269,0.0,1.0,90,0.00,,,0.00,0.0,WUHU216DAVISVP2,2013-10-13 00:37:00,
2013-10-13 01:42:00,49.0,46.4,29.98,SSW,209,3.0,3.0,91,0.00,,,0.00,0.0,WUHU216DAVISVP2,2013-10-13 00:42:00,
2013-10-13 01:47:00,49.0,46.2,29.98,SSW,198,0.0,3.0,90,0.00,,,0.00,0.0,WUHU216DAVISVP2,2013-10-13 00:47:00,
2013-10-13 01:52:00,49.0,46.2,29.98,SSW,198,0.0,3.0,90,0.00,,,0.00,0.0,WUHU216DAVISVP2,2013-10-13 00:52:00,
2013-10-13 01:57:00,49.0,46.2,29.98,SSW,198,0.0,3.0,90,0.00,,,0.00,0.0,WUHU216DAVISVP2,2013-10-13 00:57:00,
2013-10-13 02:02:00,49.0,46.2,29.97,SW,236,0.0,1.0,90,0.00,,,0.00,0.0,WUHU216DAVISVP2,2013-10-13 01:02:00,
2013-10-13 02:08:00,49.0,46.2,29.97,NNE,25,0.0,2.0,90,0.00,,,0.00,0.0,WUHU216DAVISVP2,2013-10-13 01:08:00,
2013-10-13 02:13:00,49.0,46.2,29.97,South,181,1.0,2.0,90,0.00,,,0.00,0.0,WUHU216DAVISVP2,2013-10-13 01:13:00,
2013-10-13 02:18:00,49.0,46.2,29.97,WNW,294,0.0,2.0,90,0.00,,,0.00,0.0,WUHU216DAVISVP2,2013-10-13 01:18:00,
2013-10-13 02:23:00,49.1,46.3,29.96,NW,309,0.0,2.0,90,0.00,,,0.00,0.0,WUHU216DAVISVP2,2013-10-13 01:23:00,
2013-10-13 02:28:00,49.1,46.5,29.97,NE,53,0.0,2.0,91,0.00,,,0.00,0.0,WUHU216DAVISVP2,2013-10-13 01:28:00,
2013-10-13 02:33:00,49.1,46.5,29.96,NW,305,2.0,2.0,91,0.00,,,0.00,0.0,WUHU216DAVISVP2,2013-10-13 01:33:00,
2013-10-13 02:38:00,49.1,46.5,29.96,SW,219,0.0,3.0,91,0.00,,,0.00,0.0,WUHU216DAVISVP2,2013-10-13 01:38:00,
2013-10-13 02:43:00,49.2,46.6,29.95,SSW,199,0.0,3.0,91,0.00,,,0.00,0.0,WUHU216DAVISVP2,2013-10-13 01:43:00,
2013-10-13 02:48:00,49.2,46.6,29.95,WSW,250,0.0,3.0,91,0.00,,,0.00,0.0,WUHU216DAVISVP2,2013-10-13 01:48:00,
2013-10-13 02:53:00,49.2,46.6,29.95,SSW,207,2.0,4.0,91,0.00,,,0.00,0.0,WUHU216DAVISVP2,2013-10-13 01:53:00,
2013-10-13 02:57:00,49.2,46.6,29.94,West,271,0.0,4.0,91,0.00,,,0.00,0.0,WUHU216DAVISVP2,2013-10-13 01:57:00,
2013-10-13 03:02:00,49.2,46.6,29.94,SSW,205,0.0,4.0,91,0.00,,,0.00,0.0,WUHU216DAVISVP2,2013-10-13 02:02:00,
2013-10-13 03:07:00,49.3,46.7,29.94,SW,231,0.0,4.0,91,0.00,,,0.00,0.0,WUHU216DAVISVP2,2013-10-13 02:07:00,
2013-10-13 03:12:00,49.3,46.7,29.94,SW,216,0.0,3.0,91,0.00,,,0.00,0.0,WUHU216DAVISVP2,2013-10-13 02:12:00,
2013-10-13 03:17:00,49.3,46.7,29.94,WNW,296,0.0,3.0,91,0.00,,,0.00,0.0,WUHU216DAVISVP2,2013-10-13 02:17:00,
2013-10-13 03:22:00,49.4,46.6,29.94,WSW,241,0.0,3.0,90,0.00,,,0.00,0.0,WUHU216DAVISVP2,2013-10-13 02:22:00,
2013-10-13 03:27:00,49.6,46.7,29.93,SW,219,1.0,4.0,90,0.00,,,0.00,0.0,WUHU216DAVISVP2,2013-10-13 02:27:00,
2013-10-13 03:32:00,49.6,46.7,29.93,SSW,210,1.0,5.0,90,0.00,,,0.00,0.0,WUHU216DAVISVP2,2013-10-13 02:32:00,
2013-10-13 03:37:00,49.7,46.8,29.92,North,352,1.0,5.0,90,0.00,,,0.00,0.0,WUHU216DAVISVP2,2013-10-13 02:37:00,
2013-10-13 03:42:00,49.8,46.9,29.92,WNW,283,0.0,5.0,90,0.00,,,0.00,0.0,WUHU216DAVISVP2,2013-10-13 02:42:00,
2013-10-13 03:47:00,49.9,47.0,29.92,SSW,198,0.0,5.0,90,0.00,,,0.00,0.0,WUHU216DAVISVP2,2013-10-13 02:47:00,
2013-10-13 03:52:00,49.9,47.3,29.92,North,352,0.0,3.0,91,0.00,,,0.00,0.0,WUHU216DAVISVP2,2013-10-13 02:52:00,
2013-10-13 03:57:00,49.9,47.3,29.93,WNW,285,0.0,3.0,91,0.00,,,0.00,0.0,WUHU216DAVISVP2,2013-10-13 02:57:00,
2013-10-13 04:02:00,49.8,47.2,29.92,NNW,332,0.0,3.0,91,0.00,,,0.00,0.0,WUHU216DAVISVP2,2013-10-13 03:02:00,
2013-10-13 04:07:00,49.8,47.2,29.92,WSW,252,0.0,3.0,91,0.00,,,0.00,0.0,WUHU216DAVISVP2,2013-10-13 03:07:00,
2013-10-13 04:12:00,49.8,47.5,29.92,NW,321,0.0,3.0,92,0.00,,,0.00,0.0,WUHU216DAVISVP2,2013-10-13 03:12:00,
2013-10-13 04:17:00,49.7,47.4,29.92,SW,217,0.0,2.0,92,0.00,,,0.00,0.0,WUHU216DAVISVP2,2013-10-13 03:17:00,
2013-10-13 04:22:00,49.7,47.4,29.92,SW,217,0.0,2.0,92,0.00,,,0.00,0.0,WUHU216DAVISVP2,2013-10-13 03:22:00,
2013-10-13 04:27:00,49.6,47.3,29.92,SW,217,0.0,2.0,92,0.00,,,0.00,0.0,WUHU216DAVISVP2,2013-10-13 03:27:00,
2013-10-13 04:32:00,49.6,47.3,29.92,SW,217,0.0,1.0,92,0.00,,,0.00,0.0,WUHU216DAVISVP2,2013-10-13 03:32:00,
2013-10-13 04:37:00,49.6,47.6,29.91,SSE,160,0.0,1.0,93,0.00,,,0.00,0.0,WUHU216DAVISVP2,2013-10-13 03:37:00,
2013-10-13 04:42:00,49.5,47.5,29.91,SSE,160,0.0,1.0,93,0.00,,,0.00,0.0,WUHU216DAVISVP2,2013-10-13 03:42:00,
2013-10-13 04:47:00,49.5,47.5,29.91,SSE,160,0.0,1.0,93,0.00,,,0.00,0.0,WUHU216DAVISVP2,2013-10-13 03:47:00,
2013-10-13 04:52:00,49.4,47.7,29.91,SSE,160,0.0,1.0,94,0.00,,,0.00,0.0,WUHU216DAVISVP2,2013-10-13 03:52:00,
2013-10-13 04:57:00,49.4,47.7,29.90,SSE,160,0.0,0.0,94,0.00,,,0.00,0.0,WUHU216DAVISVP2,2013-10-13 03:57:00,
2013-10-13 05:01:00,49.4,47.7,29.90,SSE,160,0.0,0.0,94,0.00,,,0.00,0.0,WUHU216DAVISVP2,2013-10-13 04:01:00,
2013-10-13 05:06:00,49.3,47.6,29.90,SSE,160,0.0,1.0,94,0.00,,,0.00,0.0,WUHU216DAVISVP2,2013-10-13 04:06:00,
2013-10-13 05:11:00,49.3,47.6,29.90,SSE,160,0.0,1.0,94,0.00,,,0.00,0.0,WUHU216DAVISVP2,2013-10-13 04:11:00,
2013-10-13 05:16:00,49.3,47.6,29.90,SSE,160,0.0,1.0,94,0.00,,,0.00,0.0,WUHU216DAVISVP2,2013-10-13 04:16:00,
2013-10-13 05:21:00,49.3,47.6,29.90,SSE,160,0.0,0.0,94,0.00,,,0.00,0.0,WUHU216DAVISVP2,2013-10-13 04:21:00,
2013-10-13 05:26:00,49.3,47.9,29.90,SSE,160,0.0,0.0,95,0.00,,,0.00,0.0,WUHU216DAVISVP2,2013-10-13 04:26:00,
2013-10-13 05:31:00,49.4,48.0,29.89,SSE,160,0.0,1.0,95,0.00,,,0.00,0.0,WUHU216DAVISVP2,2013-10-13 04:31:00,
2013-10-13 05:36:00,49.4,48.0,29.89,West,271,0.0,2.0,95,0.00,,,0.00,0.0,WUHU216DAVISVP2,2013-10-13 04:36:00,
2013-10-13 05:41:00,49.5,48.1,29.89,West,271,0.0,2.0,95,0.00,,,0.00,0.0,WUHU216DAVISVP2,2013-10-13 04:41:00,
2013-10-13 05:46:00,49.5,48.1,29.89,West,271,0.0,2.0,95,0.00,,,0.00,0.0,WUHU216DAVISVP2,2013-10-13 04:46:00,
2013-10-13 05:51:00,49.5,48.1,29.89,West,271,0.0,2.0,95,0.00,,,0.00,0.0,WUHU216DAVISVP2,2013-10-13 04:51:00,
2013-10-13 05:56:00,49.6,48.5,29.88,West,271,0.0,1.0,96,0.00,,,0.00,0.0,WUHU216DAVISVP2,2013-10-13 04:56:00,
2013-10-13 06:01:00,49.6,48.5,29.88,West,271,0.0,1.0,96,0.00,,,0.00,0.0,WUHU216DAVISVP2,2013-10-13 05:01:00,
2013-10-13 06:06:00,49.6,48.2,29.88,West,271,0.0,1.0,95,0.00,,,0.00,0.0,WUHU216DAVISVP2,2013-10-13 05:06:00,
2013-10-13 06:11:00,49.6,48.5,29.88,West,271,0.0,1.0,96,0.00,,,0.00,0.0,WUHU216DAVISVP2,2013-10-13 05:11:00,
2013-10-13 06:16:00,49.6,48.5,29.87,West,271,0.0,0.0,96,0.00,,,0.00,0.0,WUHU216DAVISVP2,2013-10-13 05:16:00,
2013-10-13 06:21:00,49.6,48.5,29.87,West,263,0.0,0.0,96,0.00,,,0.00,0.0,WUHU216DAVISVP2,2013-10-13 05:21:00,
2013-10-13 06:26:00,49.7,48.6,29.87,West,263,0.0,0.0,96,0.00,,,0.00,0.0,WUHU216DAVISVP2,2013-10-13 05:26:00,
2013-10-13 06:31:00,49.7,48.6,29.87,West,263,0.0,0.0,96,0.00,,,0.00,0.0,WUHU216DAVISVP2,2013-10-13 05:31:00,
2013-10-13 06:36:00,49.8,48.7,29.87,West,263,0.0,0.0,96,0.00,,,0.00,0.0,WUHU216DAVISVP2,2013-10-13 05:36:00,
2013-10-13 06:41:00,49.8,48.7,29.86,West,263,0.0,0.0,96,0.00,,,0.00,0.0,WUHU216DAVISVP2,2013-10-13 05:41:00,
2013-10-13 06:46:00,49.9,48.8,29.86,West,263,0.0,0.0,96,0.00,,,0.00,0.0,WUHU216DAVISVP2,2013-10-13 05:46:00,
2013-10-13 06:51:00,49.9,48.8,29.86,West,263,0.0,0.0,96,0.00,,,0.00,0.0,WUHU216DAVISVP2,2013-10-13 05:51:00,
2013-10-13 06:56:00,50.0,48.9,29.86,West,263,0.0,0.0,96,0.00,,,0.00,0.0,WUHU216DAVISVP2,2013-10-13 05:56:00,
2013-10-13 07:01:00,50.1,49.3,29.86,West,263,0.0,1.0,97,0.00,,,0.00,0.0,WUHU216DAVISVP2,2013-10-13 06:01:00,
2013-10-13 07:06:00,50.3,49.5,29.85,West,263,0.0,1.0,97,0.00,,,0.00,0.0,WUHU216DAVISVP2,2013-10-13 06:06:00,
2013-10-13 07:11:00,50.5,49.7,29.85,West,263,0.0,1.0,97,0.00,,,0.00,0.0,WUHU216DAVISVP2,2013-10-13 06:11:00,
2013-10-13 07:16:00,50.7,49.9,29.85,SW,236,0.0,1.0,97,0.00,,,0.00,0.0,WUHU216DAVISVP2,2013-10-13 06:16:00,
2013-10-13 07:21:00,50.8,49.9,29.85,SSW,202,0.0,1.0,97,0.00,,,0.00,0.0,WUHU216DAVISVP2,2013-10-13 06:21:00,
2013-10-13 07:26:00,51.0,50.1,29.85,SSW,198,1.0,1.0,97,0.00,,,0.00,0.0,WUHU216DAVISVP2,2013-10-13 06:26:00,
2013-10-13 07:31:00,51.2,50.3,29.85,SSE,162,0.0,2.0,97,0.00,,,0.00,0.0,WUHU216DAVISVP2,2013-10-13 06:31:00,
2013-10-13 07:36:00,51.4,50.5,29.85,SSW,199,2.0,4.0,97,0.00,,,0.00,0.0,WUHU216DAVISVP2,2013-10-13 06:36:00,
2013-10-13 07:41:00,51.4,50.6,29.85,SSE,155,0.0,4.0,97,0.00,,,0.00,0.0,WUHU216DAVISVP2,2013-10-13 06:41:00,
2013-10-13 07:46:00,51.5,50.7,29.85,South,182,1.0,4.0,97,0.00,,,0.00,0.0,WUHU216DAVISVP2,2013-10-13 06:46:00,
2013-10-13 07:51:00,51.6,50.8,29.85,SSE,147,0.0,5.0,97,0.00,,,0.00,0.0,WUHU216DAVISVP2,2013-10-13 06:51:00,
2013-10-13 07:56:00,51.6,50.8,29.85,SSW,198,0.0,6.0,97,0.00,,,0.00,0.0,WUHU216DAVISVP2,2013-10-13 06:56:00,
2013-10-13 08:01:00,51.6,50.8,29.85,South,183,3.0,6.0,97,0.00,,,0.00,0.0,WUHU216DAVISVP2,2013-10-13 07:01:00,
2013-10-13 08:06:00,51.7,50.9,29.85,South,187,0.0,6.0,97,0.00,,,0.00,0.0,WUHU216DAVISVP2,2013-10-13 07:06:00,
2013-10-13 08:11:00,51.7,50.9,29.85,SSE,162,0.0,6.0,97,0.00,,,0.00,5.0,WUHU216DAVISVP2,2013-10-13 07:11:00,
2013-10-13 08:16:00,51.7,50.9,29.84,SSE,159,1.0,6.0,97,0.00,,,0.00,5.0,WUHU216DAVISVP2,2013-10-13 07:16:00,
2013-10-13 08:21:00,51.7,50.9,29.84,SSE,155,1.0,5.0,97,0.00,,,0.00,7.0,WUHU216DAVISVP2,2013-10-13 07:21:00,
2013-10-13 08:26:00,51.8,50.9,29.84,SSE,159,0.0,5.0,97,0.00,,,0.00,9.0,WUHU216DAVISVP2,2013-10-13 07:26:00,
2013-10-13 08:31:00,51.8,50.9,29.84,SSW,194,1.0,5.0,97,0.00,,,0.00,14.0,WUHU216DAVISVP2,2013-10-13 07:31:00,
2013-10-13 08:36:00,51.8,50.7,29.84,SSE,155,0.0,6.0,96,0.00,,,0.00,16.0,WUHU216DAVISVP2,2013-10-13 07:36:00,
2013-10-13 08:41:00,51.8,50.7,29.84,South,172,1.0,9.0,96,0.00,,,0.00,21.0,WUHU216DAVISVP2,2013-10-13 07:41:00,
2013-10-13 08:46:00,51.8,50.9,29.84,South,176,1.0,9.0,97,0.00,,,0.00,18.0,WUHU216DAVISVP2,2013-10-13 07:46:00,
2013-10-13 08:51:00,51.8,50.9,29.84,SSE,163,0.0,9.0,97,0.00,,,0.00,11.0,WUHU216DAVISVP2,2013-10-13 07:51:00,
2013-10-13 08:56:00,51.8,50.7,29.84,South,169,0.0,9.0,96,0.00,,,0.00,16.0,WUHU216DAVISVP2,2013-10-13 07:56:00,
2013-10-13 09:01:00,51.8,50.7,29.84,SSE,149,0.0,7.0,96,0.00,,,0.00,18.0,WUHU216DAVISVP2,2013-10-13 08:01:00,
2013-10-13 09:06:00,51.8,50.7,29.83,SSE,163,2.0,7.0,96,0.00,,,0.00,18.0,WUHU216DAVISVP2,2013-10-13 08:06:00,
2013-10-13 09:11:00,51.8,50.7,29.83,SSE,163,2.0,7.0,96,0.00,,,0.00,18.0,WUHU216DAVISVP2,2013-10-13 08:11:00,
2013-10-13 09:16:00,51.7,50.6,29.83,SW,218,0.0,7.0,96,0.00,,,0.00,16.0,WUHU216DAVISVP2,2013-10-13 08:16:00,
2013-10-13 09:21:00,51.7,50.6,29.83,SW,221,2.0,7.0,96,0.00,,,0.00,18.0,WUHU216DAVISVP2,2013-10-13 08:21:00,
2013-10-13 09:26:00,51.7,50.6,29.83,SSW,193,1.0,5.0,96,0.00,,,0.00,14.0,WUHU216DAVISVP2,2013-10-13 08:26:00,
2013-10-13 09:31:00,51.6,50.5,29.83,SSW,192,3.0,5.0,96,0.00,,,0.00,18.0,WUHU216DAVISVP2,2013-10-13 08:31:00,
2013-10-13 09:36:00,51.6,50.5,29.83,SSE,165,1.0,6.0,96,0.00,,,0.00,16.0,WUHU216DAVISVP2,2013-10-13 08:36:00,
2013-10-13 09:41:00,51.5,50.4,29.83,SE,136,1.0,6.0,96,0.00,,,0.00,19.0,WUHU216DAVISVP2,2013-10-13 08:41:00,
2013-10-13 09:46:00,51.5,50.4,29.83,SW,231,1.0,6.0,96,0.00,,,0.00,16.0,WUHU216DAVISVP2,2013-10-13 08:46:00,
2013-10-13 09:51:00,51.5,50.4,29.83,South,191,0.0,6.0,96,0.00,,,0.00,19.0,WUHU216DAVISVP2,2013-10-13 08:51:00,
2013-10-13 09:56:00,51.5,50.4,29.83,South,181,1.0,7.0,96,0.00,,,0.00,18.0,WUHU216DAVISVP2,2013-10-13 08:56:00,
2013-10-13 10:01:00,51.4,50.3,29.83,SSE,168,2.0,7.0,96,0.00,,,0.00,16.0,WUHU216DAVISVP2,2013-10-13 09:01:00,
2013-10-13 10:06:00,51.3,50.2,29.83,SSE,165,3.0,7.0,96,0.00,,,0.00,12.0,WUHU216DAVISVP2,2013-10-13 09:06:00,
2013-10-13 10:11:00,51.3,50.2,29.83,South,179,2.0,7.0,96,0.00,,,0.00,14.0,WUHU216DAVISVP2,2013-10-13 09:11:00,
2013-10-13 10:16:00,51.2,50.1,29.83,SSE,163,1.0,10.0,96,0.00,,,0.00,19.0,WUHU216DAVISVP2,2013-10-13 09:16:00,
2013-10-13 10:21:00,51.1,50.0,29.83,SE,127,0.0,10.0,96,0.00,,,0.00,16.0,WUHU216DAVISVP2,2013-10-13 09:21:00,
2013-10-13 10:26:00,51.1,50.0,29.83,SSW,204,0.0,10.0,96,0.00,,,0.00,16.0,WUHU216DAVISVP2,2013-10-13 09:26:00,
2013-10-13 10:31:00,51.0,49.9,29.82,SSW,193,0.0,10.0,96,0.00,,,0.00,16.0,WUHU216DAVISVP2,2013-10-13 09:31:00,
2013-10-13 10:36:00,50.9,49.8,29.82,West,264,3.0,8.0,96,0.00,,,0.00,19.0,WUHU216DAVISVP2,2013-10-13 09:36:00,
2013-10-13 10:41:00,50.8,49.7,29.82,South,191,0.0,8.0,96,0.00,,,0.00,21.0,WUHU216DAVISVP2,2013-10-13 09:41:00,
2013-10-13 10:46:00,50.7,49.6,29.82,SSW,206,4.0,6.0,96,0.00,,,0.00,18.0,WUHU216DAVISVP2,2013-10-13 09:46:00,
2013-10-13 10:51:00,50.6,49.5,29.82,SSE,159,0.0,8.0,96,0.00,,,0.00,18.0,WUHU216DAVISVP2,2013-10-13 09:51:00,
2013-10-13 10:56:00,50.6,49.5,29.82,SSW,203,1.0,8.0,96,0.00,,,0.00,30.0,WUHU216DAVISVP2,2013-10-13 09:56:00,
2013-10-13 11:01:00,50.5,49.4,29.82,SSW,201,1.0,10.0,96,0.00,,,0.00,28.0,WUHU216DAVISVP2,2013-10-13 10:01:00,
2013-10-13 11:06:00,50.5,49.4,29.82,South,170,2.0,10.0,96,0.00,,,0.00,25.0,WUHU216DAVISVP2,2013-10-13 10:06:00,
2013-10-13 11:12:00,50.5,49.4,29.82,SE,141,2.0,10.0,96,0.00,,,0.00,28.0,WUHU216DAVISVP2,2013-10-13 10:12:00,
2013-10-13 11:16:00,50.4,49.3,29.82,SE,137,0.0,10.0,96,0.00,,,0.00,28.0,WUHU216DAVISVP2,2013-10-13 10:16:00,
2013-10-13 11:22:00,50.4,49.3,29.81,SW,224,3.0,8.0,96,0.00,,,0.00,37.0,WUHU216DAVISVP2,2013-10-13 10:22:00,
2013-10-13 11:27:00,50.4,49.3,29.82,SSW,195,2.0,8.0,96,0.00,,,0.00,32.0,WUHU216DAVISVP2,2013-10-13 10:27:00,
2013-10-13 11:32:00,50.4,49.3,29.81,SSE,150,0.0,8.0,96,0.00,,,0.00,40.0,WUHU216DAVISVP2,2013-10-13 10:32:00,
2013-10-13 11:37:00,50.4,49.3,29.81,NW,323,0.0,7.0,96,0.00,,,0.00,32.0,WUHU216DAVISVP2,2013-10-13 10:37:00,
2013-10-13 11:42:00,50.4,49.3,29.81,South,171,4.0,7.0,96,0.00,,,0.00,25.0,WUHU216DAVISVP2,2013-10-13 10:42:00,
2013-10-13 11:46:00,50.4,49.3,29.81,SW,218,0.0,7.0,96,0.00,,,0.00,33.0,WUHU216DAVISVP2,2013-10-13 10:46:00,
2013-10-13 11:51:00,50.4,49.3,29.81,ESE,115,7.0,7.0,96,0.00,,,0.00,26.0,WUHU216DAVISVP2,2013-10-13 10:51:00,
2013-10-13 11:56:00,50.4,49.3,29.80,SSE,150,0.0,7.0,96,0.00,,,0.00,53.0,WUHU216DAVISVP2,2013-10-13 10:56:00,
2013-10-13 12:01:00,50.4,49.3,29.80,SE,144,1.0,7.0,96,0.00,,,0.00,37.0,WUHU216DAVISVP2,2013-10-13 11:01:00,
2013-10-13 12:06:00,50.4,49.3,29.80,SE,143,1.0,7.0,96,0.00,,,0.00,39.0,WUHU216DAVISVP2,2013-10-13 11:06:00,
2013-10-13 12:11:00,50.4,49.3,29.80,South,176,2.0,8.0,96,0.00,,,0.00,35.0,WUHU216DAVISVP2,2013-10-13 11:11:00,
2013-10-13 12:16:00,50.4,49.3,29.80,West,279,0.0,8.0,96,0.00,,,0.00,39.0,WUHU216DAVISVP2,2013-10-13 11:16:00,
2013-10-13 12:21:00,50.4,49.3,29.80,WNW,299,1.0,8.0,96,0.00,,,0.00,28.0,WUHU216DAVISVP2,2013-10-13 11:21:00,
2013-10-13 12:26:00,50.4,49.3,29.80,South,181,2.0,8.0,96,0.00,,,0.00,39.0,WUHU216DAVISVP2,2013-10-13 11:26:00,
2013-10-13 12:31:00,50.4,49.3,29.80,SW,231,0.0,7.0,96,0.00,,,0.00,35.0,WUHU216DAVISVP2,2013-10-13 11:31:00,
2013-10-13 12:36:00,50.3,49.2,29.80,SW,224,3.0,7.0,96,0.00,,,0.00,30.0,WUHU216DAVISVP2,2013-10-13 11:36:00,
2013-10-13 12:41:00,50.3,49.2,29.80,SSW,210,4.0,7.0,96,0.00,,,0.00,40.0,WUHU216DAVISVP2,2013-10-13 11:41:00,
2013-10-13 12:46:00,50.3,49.2,29.80,South,191,0.0,7.0,96,0.00,,,0.00,40.0,WUHU216DAVISVP2,2013-10-13 11:46:00,
2013-10-13 12:51:00,50.3,49.2,29.80,SW,234,1.0,7.0,96,0.00,,,0.00,46.0,WUHU216DAVISVP2,2013-10-13 11:51:00,
2013-10-13 12:56:00,50.3,49.2,29.80,South,185,0.0,7.0,96,0.00,,,0.00,28.0,WUHU216DAVISVP2,2013-10-13 11:56:00,
2013-10-13 13:01:00,50.3,49.2,29.80,SW,224,0.0,7.0,96,0.00,,,0.00,23.0,WUHU216DAVISVP2,2013-10-13 12:01:00,
2013-10-13 13:06:00,50.3,49.2,29.80,SSW,203,2.0,6.0,96,0.00,,,0.00,23.0,WUHU216DAVISVP2,2013-10-13 12:06:00,
2013-10-13 13:11:00,50.2,49.1,29.80,SSW,199,2.0,6.0,96,0.00,,,0.00,21.0,WUHU216DAVISVP2,2013-10-13 12:11:00,
2013-10-13 13:16:00,50.2,49.1,29.80,SSE,167,1.0,6.0,96,0.00,,,0.00,26.0,WUHU216DAVISVP2,2013-10-13 12:16:00,
2013-10-13 13:21:00,50.1,49.0,29.80,SE,141,0.0,7.0,96,0.00,,,0.00,23.0,WUHU216DAVISVP2,2013-10-13 12:21:00,
2013-10-13 13:26:00,50.1,49.0,29.80,SSW,194,0.0,7.0,96,0.00,,,0.00,30.0,WUHU216DAVISVP2,2013-10-13 12:26:00,
2013-10-13 13:31:00,50.1,49.0,29.80,SSE,165,1.0,7.0,96,0.00,,,0.00,28.0,WUHU216DAVISVP2,2013-10-13 12:31:00,
2013-10-13 13:36:00,50.1,49.0,29.80,SSW,208,1.0,7.0,96,0.00,,,0.00,33.0,WUHU216DAVISVP2,2013-10-13 12:36:00,
2013-10-13 13:41:00,50.0,48.9,29.80,SSW,194,5.0,9.0,96,0.00,,,0.00,37.0,WUHU216DAVISVP2,2013-10-13 12:41:00,
2013-10-13 13:46:00,50.0,48.9,29.79,South,184,5.0,9.0,96,0.00,,,0.00,35.0,WUHU216DAVISVP2,2013-10-13 12:46:00,
2013-10-13 13:51:00,50.1,49.0,29.79,South,181,2.0,9.0,96,0.00,,,0.00,35.0,WUHU216DAVISVP2,2013-10-13 12:51:00,
2013-10-13 13:56:00,50.1,49.0,29.79,SSE,158,0.0,9.0,96,0.00,,,0.00,69.0,WUHU216DAVISVP2,2013-10-13 12:56:00,
2013-10-13 14:01:00,50.2,49.4,29.79,SSE,165,1.0,7.0,97,0.00,,,0.00,65.0,WUHU216DAVISVP2,2013-10-13 13:01:00,
2013-10-13 14:06:00,50.3,49.5,29.79,South,179,4.0,7.0,97,0.00,,,0.00,67.0,WUHU216DAVISVP2,2013-10-13 13:06:00,
2013-10-13 14:11:00,50.3,49.5,29.79,SSE,167,1.0,7.0,97,0.00,,,0.00,69.0,WUHU216DAVISVP2,2013-10-13 13:11:00,
2013-10-13 14:16:00,50.3,49.2,29.79,South,188,1.0,9.0,96,0.00,,,0.00,56.0,WUHU216DAVISVP2,2013-10-13 13:16:00,
2013-10-13 14:21:00,50.3,49.2,29.79,SW,231,2.0,9.0,96,0.00,,,0.00,42.0,WUHU216DAVISVP2,2013-10-13 13:21:00,
2013-10-13 14:26:00,50.3,49.2,29.79,South,187,2.0,9.0,96,0.00,,,0.00,53.0,WUHU216DAVISVP2,2013-10-13 13:26:00,
2013-10-13 14:31:00,50.3,49.2,29.79,SE,125,3.0,9.0,96,0.00,,,0.00,49.0,WUHU216DAVISVP2,2013-10-13 13:31:00,
2013-10-13 14:36:00,50.3,49.2,29.79,SSE,154,5.0,8.0,96,0.00,,,0.00,35.0,WUHU216DAVISVP2,2013-10-13 13:36:00,
2013-10-13 14:41:00,50.3,49.2,29.79,SSE,168,0.0,8.0,96,0.00,,,0.00,39.0,WUHU216DAVISVP2,2013-10-13 13:41:00,
2013-10-13 14:46:00,50.3,49.2,29.79,South,170,0.0,8.0,96,0.00,,,0.00,33.0,WUHU216DAVISVP2,2013-10-13 13:46:00,
2013-10-13 14:51:00,50.3,49.2,29.79,SSW,193,1.0,8.0,96,0.00,,,0.00,33.0,WUHU216DAVISVP2,2013-10-13 13:51:00,
2013-10-13 14:56:00,50.3,49.2,29.79,South,174,0.0,6.0,96,0.00,,,0.00,47.0,WUHU216DAVISVP2,2013-10-13 13:56:00,
2013-10-13 15:01:00,50.3,49.2,29.79,SSW,198,0.0,6.0,96,0.00,,,0.00,37.0,WUHU216DAVISVP2,2013-10-13 14:01:00,
2013-10-13 15:06:00,50.3,49.2,29.78,SSE,164,0.0,7.0,96,0.00,,,0.00,28.0,WUHU216DAVISVP2,2013-10-13 14:06:00,
2013-10-13 15:11:00,50.2,49.1,29.79,East,91,1.0,7.0,96,0.00,,,0.00,16.0,WUHU216DAVISVP2,2013-10-13 14:11:00,
2013-10-13 15:16:00,50.2,49.1,29.79,SW,228,0.0,7.0,96,0.00,,,0.00,18.0,WUHU216DAVISVP2,2013-10-13 14:16:00,
2013-10-13 15:21:00,50.2,49.1,29.79,SSE,164,0.0,7.0,96,0.00,,,0.00,18.0,WUHU216DAVISVP2,2013-10-13 14:21:00,
2013-10-13 15:26:00,50.2,49.1,29.78,South,169,0.0,4.0,96,0.00,,,0.00,18.0,WUHU216DAVISVP2,2013-10-13 14:26:00,
2013-10-13 15:31:00,50.2,49.1,29.79,South,172,0.0,4.0,96,0.00,,,0.00,14.0,WUHU216DAVISVP2,2013-10-13 14:31:00,
2013-10-13 15:36:00,50.2,49.1,29.78,South,188,3.0,3.0,96,0.00,,,0.00,19.0,WUHU216DAVISVP2,2013-10-13 14:36:00,
2013-10-13 15:41:00,50.2,49.1,29.78,SSE,151,0.0,5.0,96,0.00,,,0.00,28.0,WUHU216DAVISVP2,2013-10-13 14:41:00,
2013-10-13 15:46:00,50.1,49.0,29.78,SSE,164,0.0,5.0,96,0.00,,,0.00,32.0,WUHU216DAVISVP2,2013-10-13 14:46:00,
2013-10-13 15:51:00,50.2,49.1,29.78,South,172,0.0,5.0,96,0.00,,,0.00,32.0,WUHU216DAVISVP2,2013-10-13 14:51:00,
2013-10-13 15:56:00,50.2,49.1,29.78,South,188,0.0,5.0,96,0.00,,,0.00,56.0,WUHU216DAVISVP2,2013-10-13 14:56:00,
2013-10-13 16:02:00,50.3,49.5,29.78,SSW,209,0.0,3.0,97,0.00,,,0.00,42.0,WUHU216DAVISVP2,2013-10-13 15:02:00,
2013-10-13 16:06:00,50.3,49.2,29.78,SSW,209,0.0,3.0,96,0.00,,,0.00,30.0,WUHU216DAVISVP2,2013-10-13 15:06:00,
2013-10-13 16:11:00,50.4,49.3,29.78,South,188,0.0,3.0,96,0.00,,,0.00,23.0,WUHU216DAVISVP2,2013-10-13 15:11:00,
2013-10-13 16:16:00,50.4,49.3,29.78,SE,131,0.0,2.0,96,0.00,,,0.00,30.0,WUHU216DAVISVP2,2013-10-13 15:16:00,
2013-10-13 16:21:00,50.4,49.3,29.79,SSW,202,0.0,2.0,96,0.00,,,0.00,25.0,WUHU216DAVISVP2,2013-10-13 15:21:00,
2013-10-13 16:26:00,50.4,49.3,29.79,South,188,0.0,3.0,96,0.00,,,0.00,25.0,WUHU216DAVISVP2,2013-10-13 15:26:00,
2013-10-13 16:31:00,50.4,49.3,29.78,South,174,0.0,4.0,96,0.00,,,0.00,28.0,WUHU216DAVISVP2,2013-10-13 15:31:00,
2013-10-13 16:36:00,50.4,49.3,29.78,South,188,0.0,4.0,96,0.00,,,0.00,28.0,WUHU216DAVISVP2,2013-10-13 15:36:00,
2013-10-13 16:41:00,50.4,49.3,29.79,South,189,0.0,4.0,96,0.00,,,0.00,23.0,WUHU216DAVISVP2,2013-10-13 15:41:00,
2013-10-13 16:46:00,50.4,49.3,29.79,South,189,0.0,4.0,96,0.00,,,0.00,21.0,WUHU216DAVISVP2,2013-10-13 15:46:00,
2013-10-13 16:51:00,50.5,49.4,29.79,SSW,195,0.0,3.0,96,0.00,,,0.00,23.0,WUHU216DAVISVP2,2013-10-13 15:51:00,
2013-10-13 16:56:00,50.4,49.3,29.78,SW,221,0.0,4.0,96,0.00,,,0.00,19.0,WUHU216DAVISVP2,2013-10-13 15:56:00,
2013-10-13 17:01:00,50.4,49.3,29.78,SSW,205,0.0,4.0,96,0.00,,,0.00,5.0,WUHU216DAVISVP2,2013-10-13 16:01:00,
2013-10-13 17:06:00,50.3,49.2,29.78,SSW,194,0.0,4.0,96,0.00,,,0.00,0.0,WUHU216DAVISVP2,2013-10-13 16:06:00,
2013-10-13 17:11:00,50.3,49.2,29.78,SSW,194,0.0,4.0,96,0.00,,,0.00,0.0,WUHU216DAVISVP2,2013-10-13 16:11:00,
2013-10-13 17:16:00,50.2,48.8,29.78,South,185,0.0,3.0,95,0.00,,,0.00,0.0,WUHU216DAVISVP2,2013-10-13 16:16:00,
2013-10-13 17:21:00,50.2,48.8,29.78,West,279,0.0,3.0,95,0.00,,,0.00,5.0,WUHU216DAVISVP2,2013-10-13 16:21:00,
2013-10-13 17:26:00,50.1,48.7,29.78,North,1,0.0,3.0,95,0.01,,,0.01,7.0,WUHU216DAVISVP2,2013-10-13 16:26:00,
2013-10-13 17:31:00,50.1,48.7,29.78,West,269,0.0,3.0,95,0.01,,,0.01,0.0,WUHU216DAVISVP2,2013-10-13 16:31:00,
2013-10-13 17:36:00,50.1,48.7,29.78,SW,224,0.0,3.0,95,0.01,,,0.01,0.0,WUHU216DAVISVP2,2013-10-13 16:36:00,
2013-10-13 17:41:00,50.0,48.6,29.78,SSW,207,0.0,3.0,95,0.01,,,0.01,0.0,WUHU216DAVISVP2,2013-10-13 16:41:00,
2013-10-13 17:46:00,50.0,48.6,29.78,ESE,121,0.0,8.0,95,0.01,,,0.01,0.0,WUHU216DAVISVP2,2013-10-13 16:46:00,
2013-10-13 17:51:00,50.0,48.6,29.78,South,183,0.0,8.0,95,0.01,,,0.01,0.0,WUHU216DAVISVP2,2013-10-13 16:51:00,
2013-10-13 17:56:00,50.0,48.6,29.78,SSE,152,0.0,8.0,95,0.01,,,0.01,0.0,WUHU216DAVISVP2,2013-10-13 16:56:00,
2013-10-13 18:02:00,49.9,48.5,29.79,SSW,198,0.0,8.0,95,0.01,,,0.01,0.0,WUHU216DAVISVP2,2013-10-13 17:02:00,
2013-10-13 18:07:00,49.9,48.5,29.78,SSW,198,0.0,3.0,95,0.01,,,0.01,0.0,WUHU216DAVISVP2,2013-10-13 17:07:00,
2013-10-13 18:12:00,49.9,48.5,29.79,SSW,198,0.0,3.0,95,0.01,,,0.01,0.0,WUHU216DAVISVP2,2013-10-13 17:12:00,
2013-10-13 18:17:00,49.8,48.4,29.78,NW,326,0.0,2.0,95,0.01,,,0.01,0.0,WUHU216DAVISVP2,2013-10-13 17:17:00,
2013-10-13 18:22:00,49.8,48.4,29.79,WNW,296,0.0,2.0,95,0.01,,,0.01,0.0,WUHU216DAVISVP2,2013-10-13 17:22:00,
2013-10-13 18:27:00,49.7,48.3,29.79,West,281,0.0,2.0,95,0.00,,,0.01,0.0,WUHU216DAVISVP2,2013-10-13 17:27:00,
2013-10-13 18:32:00,49.7,48.3,29.79,SSW,207,0.0,2.0,95,0.00,,,0.01,0.0,WUHU216DAVISVP2,2013-10-13 17:32:00,
2013-10-13 18:37:00,49.6,48.2,29.79,SSW,195,0.0,3.0,95,0.00,,,0.01,0.0,WUHU216DAVISVP2,2013-10-13 17:37:00,
2013-10-13 18:42:00,49.6,48.2,29.79,SSW,205,1.0,3.0,95,0.00,,,0.01,0.0,WUHU216DAVISVP2,2013-10-13 17:42:00,
2013-10-13 18:47:00,49.5,48.1,29.79,SSW,203,0.0,3.0,95,0.00,,,0.01,0.0,WUHU216DAVISVP2,2013-10-13 17:47:00,
2013-10-13 18:52:00,49.4,48.0,29.79,SSW,200,0.0,3.0,95,0.00,,,0.01,0.0,WUHU216DAVISVP2,2013-10-13 17:52:00,
2013-10-13 18:57:00,49.3,47.9,29.79,SSW,200,0.0,2.0,95,0.00,,,0.01,0.0,WUHU216DAVISVP2,2013-10-13 17:57:00,
2013-10-13 19:02:00,49.1,47.7,29.79,SSW,200,0.0,1.0,95,0.00,,,0.01,0.0,WUHU216DAVISVP2,2013-10-13 18:02:00,
2013-10-13 19:07:00,49.0,47.6,29.79,SSW,200,0.0,1.0,95,0.00,,,0.01,0.0,WUHU216DAVISVP2,2013-10-13 18:07:00,
2013-10-13 19:12:00,48.9,47.5,29.80,SSW,200,0.0,1.0,95,0.00,,,0.01,0.0,WUHU216DAVISVP2,2013-10-13 18:12:00,
2013-10-13 19:17:00,48.8,47.4,29.80,SSW,200,0.0,1.0,95,0.00,,,0.01,0.0,WUHU216DAVISVP2,2013-10-13 18:17:00,
2013-10-13 19:22:00,48.8,47.4,29.80,SSW,200,0.0,0.0,95,0.00,,,0.01,0.0,WUHU216DAVISVP2,2013-10-13 18:22:00,
2013-10-13 19:27:00,48.7,47.3,29.80,SSW,200,0.0,0.0,95,0.00,,,0.01,0.0,WUHU216DAVISVP2,2013-10-13 18:27:00,
2013-10-13 19:32:00,48.7,47.3,29.80,SSW,200,0.0,0.0,95,0.00,,,0.01,0.0,WUHU216DAVISVP2,2013-10-13 18:32:00,
2013-10-13 19:37:00,48.6,47.5,29.80,SSW,200,0.0,0.0,96,0.00,,,0.01,0.0,WUHU216DAVISVP2,2013-10-13 18:37:00,
2013-10-13 19:42:00,48.5,47.4,29.80,SSW,200,0.0,0.0,96,0.00,,,0.01,0.0,WUHU216DAVISVP2,2013-10-13 18:42:00,
2013-10-13 19:47:00,48.5,47.4,29.80,SSW,200,0.0,0.0,96,0.00,,,0.01,0.0,WUHU216DAVISVP2,2013-10-13 18:47:00,
2013-10-13 19:52:00,48.5,47.4,29.80,SSW,200,0.0,1.0,96,0.00,,,0.01,0.0,WUHU216DAVISVP2,2013-10-13 18:52:00,
2013-10-13 19:57:00,48.4,47.0,29.79,SW,221,0.0,1.0,95,0.00,,,0.01,0.0,WUHU216DAVISVP2,2013-10-13 18:57:00,
2013-10-13 20:02:00,48.3,46.9,29.80,South,176,0.0,2.0,95,0.00,,,0.01,0.0,WUHU216DAVISVP2,2013-10-13 19:02:00,
2013-10-13 20:07:00,48.2,46.8,29.79,South,176,0.0,2.0,95,0.00,,,0.01,0.0,WUHU216DAVISVP2,2013-10-13 19:07:00,
2013-10-13 20:12:00,48.0,46.6,29.79,South,176,0.0,2.0,95,0.00,,,0.01,0.0,WUHU216DAVISVP2,2013-10-13 19:12:00,
2013-10-13 20:17:00,47.9,46.2,29.79,South,176,0.0,2.0,94,0.00,,,0.01,0.0,WUHU216DAVISVP2,2013-10-13 19:17:00,
2013-10-13 20:22:00,47.8,46.1,29.79,South,176,0.0,0.0,94,0.00,,,0.01,0.0,WUHU216DAVISVP2,2013-10-13 19:22:00,
2013-10-13 20:27:00,47.7,46.3,29.79,SSW,213,0.0,1.0,95,0.00,,,0.01,0.0,WUHU216DAVISVP2,2013-10-13 19:27:00,
2013-10-13 20:32:00,47.7,46.3,29.79,WNW,302,0.0,2.0,95,0.00,,,0.01,0.0,WUHU216DAVISVP2,2013-10-13 19:32:00,
2013-10-13 20:37:00,47.7,46.3,29.79,NW,308,0.0,3.0,95,0.00,,,0.01,0.0,WUHU216DAVISVP2,2013-10-13 19:37:00,
2013-10-13 20:42:00,47.7,46.3,29.79,WNW,292,0.0,3.0,95,0.00,,,0.01,0.0,WUHU216DAVISVP2,2013-10-13 19:42:00,
2013-10-13 20:47:00,47.7,46.0,29.79,WNW,292,0.0,3.0,94,0.00,,,0.01,0.0,WUHU216DAVISVP2,2013-10-13 19:47:00,
2013-10-13 20:52:00,47.6,45.9,29.79,West,273,0.0,3.0,94,0.00,,,0.01,0.0,WUHU216DAVISVP2,2013-10-13 19:52:00,
2013-10-13 20:57:00,47.5,45.8,29.79,West,273,0.0,2.0,94,0.00,,,0.01,0.0,WUHU216DAVISVP2,2013-10-13 19:57:00,
2013-10-13 21:02:00,47.4,45.7,29.79,West,273,0.0,2.0,94,0.00,,,0.01,0.0,WUHU216DAVISVP2,2013-10-13 20:02:00,
2013-10-13 21:07:00,47.3,45.6,29.79,West,273,0.0,2.0,94,0.00,,,0.01,0.0,WUHU216DAVISVP2,2013-10-13 20:07:00,
2013-10-13 21:12:00,47.2,45.5,29.79,West,273,0.0,1.0,94,0.00,,,0.01,0.0,WUHU216DAVISVP2,2013-10-13 20:12:00,
2013-10-13 21:17:00,47.2,45.5,29.79,North,359,0.0,1.0,94,0.00,,,0.01,0.0,WUHU216DAVISVP2,2013-10-13 20:17:00,
2013-10-13 21:22:00,47.1,45.4,29.79,North,359,0.0,1.0,94,0.00,,,0.01,0.0,WUHU216DAVISVP2,2013-10-13 20:22:00,
2013-10-13 21:27:00,47.1,45.7,29.80,SW,221,0.0,3.0,95,0.00,,,0.01,0.0,WUHU216DAVISVP2,2013-10-13 20:27:00,
2013-10-13 21:32:00,47.1,45.7,29.79,SW,221,0.0,3.0,95,0.00,,,0.01,0.0,WUHU216DAVISVP2,2013-10-13 20:32:00,
2013-10-13 21:37:00,47.0,45.6,29.79,SW,221,0.0,3.0,95,0.00,,,0.01,0.0,WUHU216DAVISVP2,2013-10-13 20:37:00,
2013-10-13 21:42:00,47.0,45.6,29.79,SW,221,0.0,3.0,95,0.00,,,0.01,0.0,WUHU216DAVISVP2,2013-10-13 20:42:00,
2013-10-13 21:47:00,46.9,45.5,29.79,SW,221,0.0,0.0,95,0.00,,,0.01,0.0,WUHU216DAVISVP2,2013-10-13 20:47:00,
2013-10-13 21:52:00,46.9,45.5,29.79,SW,223,0.0,1.0,95,0.00,,,0.01,0.0,WUHU216DAVISVP2,2013-10-13 20:52:00,
2013-10-13 21:57:00,46.9,45.8,29.79,SW,231,0.0,1.0,96,0.00,,,0.01,0.0,WUHU216DAVISVP2,2013-10-13 20:57:00,
2013-10-13 22:02:00,47.0,45.9,29.78,West,271,0.0,3.0,96,0.00,,,0.01,0.0,WUHU216DAVISVP2,2013-10-13 21:02:00,
2013-10-13 22:07:00,47.1,46.0,29.78,SW,226,1.0,3.0,96,0.00,,,0.01,0.0,WUHU216DAVISVP2,2013-10-13 21:07:00,
2013-10-13 22:12:00,47.1,46.0,29.78,SSW,195,0.0,3.0,96,0.00,,,0.01,0.0,WUHU216DAVISVP2,2013-10-13 21:12:00,
2013-10-13 22:17:00,47.1,46.0,29.78,SSW,205,0.0,3.0,96,0.00,,,0.01,0.0,WUHU216DAVISVP2,2013-10-13 21:17:00,
2013-10-13 22:22:00,47.1,45.7,29.78,SSW,205,0.0,3.0,95,0.00,,,0.01,0.0,WUHU216DAVISVP2,2013-10-13 21:22:00,
2013-10-13 22:27:00,47.0,45.6,29.78,West,276,0.0,3.0,95,0.00,,,0.01,0.0,WUHU216DAVISVP2,2013-10-13 21:27:00,
2013-10-13 22:32:00,47.0,45.6,29.78,West,276,0.0,1.0,95,0.00,,,0.01,0.0,WUHU216DAVISVP2,2013-10-13 21:32:00,
2013-10-13 22:37:00,47.0,45.6,29.78,WNW,285,0.0,1.0,95,0.00,,,0.01,0.0,WUHU216DAVISVP2,2013-10-13 21:37:00,
2013-10-13 22:42:00,47.0,45.6,29.78,SW,229,0.0,1.0,95,0.00,,,0.01,0.0,WUHU216DAVISVP2,2013-10-13 21:42:00,
2013-10-13 22:47:00,46.9,45.5,29.78,SSW,208,0.0,2.0,95,0.00,,,0.01,0.0,WUHU216DAVISVP2,2013-10-13 21:47:00,
2013-10-13 22:52:00,46.9,45.5,29.78,SW,224,2.0,2.0,95,0.00,,,0.01,0.0,WUHU216DAVISVP2,2013-10-13 21:52:00,
2013-10-13 22:57:00,46.9,45.5,29.78,SW,236,0.0,3.0,95,0.00,,,0.01,0.0,WUHU216DAVISVP2,2013-10-13 21:57:00,
2013-10-13 23:02:00,46.9,45.5,29.78,WNW,290,0.0,3.0,95,0.00,,,0.01,0.0,WUHU216DAVISVP2,2013-10-13 22:02:00,
2013-10-13 23:07:00,47.0,45.6,29.78,South,173,0.0,3.0,95,0.00,,,0.01,0.0,WUHU216DAVISVP2,2013-10-13 22:07:00,
2013-10-13 23:12:00,47.0,45.3,29.78,West,272,0.0,3.0,94,0.00,,,0.01,0.0,WUHU216DAVISVP2,2013-10-13 22:12:00,
2013-10-13 23:17:00,47.0,45.4,29.78,NNW,330,3.0,3.0,94,0.00,,,0.01,0.0,WUHU216DAVISVP2,2013-10-13 22:17:00,
2013-10-13 23:22:00,47.0,45.3,29.78,NNW,334,0.0,3.0,94,0.00,,,0.01,0.0,WUHU216DAVISVP2,2013-10-13 22:22:00,
2013-10-13 23:27:00,47.0,45.6,29.78,NW,321,1.0,3.0,95,0.00,,,0.01,0.0,WUHU216DAVISVP2,2013-10-13 22:27:00,
2013-10-13 23:32:00,46.9,45.5,29.78,NNW,342,0.0,3.0,95,0.00,,,0.01,0.0,WUHU216DAVISVP2,2013-10-13 22:32:00,
2013-10-13 23:37:00,47.0,45.6,29.78,NNW,347,0.0,2.0,95,0.00,,,0.01,0.0,WUHU216DAVISVP2,2013-10-13 22:37:00,
2013-10-13 23:42:00,47.0,45.6,29.78,NNW,333,1.0,2.0,95,0.00,,,0.01,0.0,WUHU216DAVISVP2,2013-10-13 22:42:00,
2013-10-13 23:47:00,47.0,45.6,29.78,NW,322,0.0,3.0,95,0.00,,,0.01,0.0,WUHU216DAVISVP2,2013-10-13 22:47:00,
2013-10-13 23:52:00,47.1,45.7,29.78,NW,306,1.0,3.0,95,0.00,,,0.01,0.0,WUHU216DAVISVP2,2013-10-13 22:52:00,
2013-10-13 23:57:00,47.2,45.8,29.78,West,262,0.0,3.0,95,0.00,,,0.01,0.0,WUHU216DAVISVP2,2013-10-13 22:57:00,